Ely, MN

2:35 AM CDT on July 27, 2017 (GMT -0500)
Ely Municipal

Weather History for KELO - November, 2012

Change the Weather History Date:

Monday, November 12, 2012

  Actual Average Record
Temperature  
Mean Temperature 20 °F -  
Max Temperature 24 °F 35 °F 55 °F (2016)
Min Temperature 17 °F 21 °F 5 °F (1996)
Degree Days  
Heating Degree Days 44    
Moisture  
Dew Point 17 °F    
Average Humidity 85    
Maximum Humidity 93    
Minimum Humidity 74    
Precipitation  
Precipitation 0.00 in - - ()
Sea Level Pressure  
Sea Level Pressure 29.82 in    
Wind  
Wind Speed 9 mph (WSW)    
Max Wind Speed 14 mph    
Max Gust Speed 24 mph    
Visibility 6 miles    
Events Snow    
Averages and records for this station are not official NWS values.
T = Trace of Precipitation, MM = Missing Value Source: NWS Daily Summary

Daily Weather History Graph

Daily Weather History Graph

Search for Another Location

Airport or City:

Trip Planner

Search our weather history database for the weather conditions in past years. The results will help you decide how hot, cold, wet, or windy it might be!

Date:

Astronomy

Nov. 12, 2012 Rise Set
Actual Time 7:09 AM CST 4:33 PM CST
Civil Twilight 6:35 AM CST 5:06 PM CST
Nautical Twilight 5:58 AM CST 5:43 PM CST
Astronomical Twilight 5:22 AM CST 6:20 PM CST
Moon 5:31 AM CST (11/12) 3:40 PM CST (11/12)
Length of Visible Light 10h 30m
Length of Day
9h 23m
Waning Crescent, 2% of the Moon is Illuminated
Nov 12
Waning Crescent
Nov 13
New
Nov 20
First Quarter
Nov 28
Full
Dec 6
Last Quarter

Hourly Weather History & Observations

Time (CST) Temp. Windchill Dew Point Humidity Pressure Visibility Wind Dir Wind Speed Gust Speed Precip Events Conditions
12:13 AM 21.2 °F 11.7 °F 17.6 °F 86% 29.70 in 10.0 mi WSW 8.1 mph - N/A Snow Light Snow
12:32 AM 21.2 °F 13.6 °F 17.6 °F 86% 29.70 in 7.0 mi West 5.8 mph - N/A Snow Light Snow
12:53 AM 21.2 °F 10.9 °F 15.8 °F 80% 29.70 in 10.0 mi WSW 9.2 mph - N/A Snow Light Snow
1:13 AM 21.2 °F 9.5 °F 15.8 °F 80% 29.70 in 10.0 mi WSW 11.5 mph 16.1 mph N/A   Overcast
1:32 AM 21.2 °F 10.1 °F 15.8 °F 80% 29.70 in 10.0 mi WSW 10.4 mph 18.4 mph N/A   Overcast
1:53 AM 21.2 °F 10.9 °F 15.8 °F 80% 29.70 in 10.0 mi WSW 9.2 mph - N/A   Overcast
2:13 AM 21.2 °F 11.7 °F 15.8 °F 80% 29.70 in 7.0 mi WSW 8.1 mph - N/A Snow Light Snow
2:32 AM 21.2 °F 11.7 °F 15.8 °F 80% 29.70 in 7.0 mi SW 8.1 mph - N/A Snow Light Snow
2:53 AM 21.2 °F 10.9 °F 15.8 °F 80% 29.70 in 7.0 mi SW 9.2 mph - N/A Snow Light Snow
3:12 AM 21.2 °F 13.6 °F 17.6 °F 86% 29.69 in 5.0 mi SW 5.8 mph - N/A Snow Light Snow
3:33 AM 19.4 °F 9.5 °F 15.8 °F 86% 29.70 in 7.0 mi SW 8.1 mph - N/A Snow Light Snow
3:53 AM 19.4 °F 6.6 °F 15.8 °F 86% 29.70 in 7.0 mi SW 12.7 mph - N/A Snow Light Snow
4:12 AM 19.4 °F 7.9 °F 14.0 °F 80% 29.70 in 10.0 mi SW 10.4 mph - N/A   Overcast
4:33 AM 19.4 °F 7.9 °F 14.0 °F 80% 29.71 in 7.0 mi SW 10.4 mph 16.1 mph N/A Snow Light Snow
4:53 AM 19.4 °F 9.5 °F 15.8 °F 86% 29.71 in 5.0 mi SW 8.1 mph 16.1 mph N/A Snow Light Snow
5:13 AM 19.4 °F 7.9 °F 14.0 °F 80% 29.71 in 10.0 mi SW 10.4 mph 16.1 mph N/A Snow Light Snow
5:33 AM 19.4 °F 9.5 °F 14.0 °F 80% 29.71 in 10.0 mi SW 8.1 mph - N/A Snow Light Snow
5:53 AM 19.4 °F 9.5 °F 14.0 °F 80% 29.71 in 7.0 mi SW 8.1 mph - N/A Snow Light Snow
6:12 AM 19.4 °F 9.5 °F 15.8 °F 86% 29.72 in 4.0 mi SW 8.1 mph - N/A Snow Light Snow
6:33 AM 19.4 °F 10.4 °F 15.8 °F 86% 29.72 in 3.0 mi SW 6.9 mph - N/A Snow Light Snow
6:53 AM 19.4 °F 7.2 °F 15.8 °F 86% 29.72 in 1.2 mi WSW 11.5 mph 16.1 mph N/A Snow Snow
7:12 AM 17.6 °F 9.3 °F 15.8 °F 93% 29.72 in 3.0 mi WSW 5.8 mph - N/A Snow Light Snow
7:33 AM 17.6 °F 7.3 °F 15.8 °F 93% 29.73 in 2.5 mi West 8.1 mph - N/A Snow Light Snow
7:52 AM 17.6 °F 7.3 °F 14.0 °F 86% 29.73 in 10.0 mi WSW 8.1 mph - N/A   Overcast
8:13 AM 17.6 °F 4.3 °F 12.2 °F 79% 29.74 in 10.0 mi West 12.7 mph 18.4 mph N/A   Overcast
8:32 AM 17.6 °F 7.3 °F 12.2 °F 79% 29.74 in 7.0 mi West 8.1 mph 16.1 mph N/A   Overcast
8:53 AM 19.4 °F 10.4 °F 14.0 °F 80% 29.74 in 10.0 mi WSW 6.9 mph - N/A   Overcast
9:13 AM 19.4 °F 7.9 °F 14.0 °F 80% 29.74 in 7.0 mi WSW 10.4 mph - N/A   Overcast
9:32 AM 19.4 °F 9.5 °F 12.2 °F 74% 29.74 in 7.0 mi WSW 8.1 mph - N/A Snow Light Snow
9:53 AM 19.4 °F 7.2 °F 12.2 °F 74% 29.75 in 3.0 mi WSW 11.5 mph - N/A Snow Light Snow
10:13 AM 19.4 °F 6.6 °F 14.0 °F 80% 29.76 in 3.0 mi West 12.7 mph 16.1 mph N/A Snow Light Snow
10:32 AM 19.4 °F 10.4 °F 14.0 °F 80% 29.76 in 1.8 mi WSW 6.9 mph 18.4 mph N/A Snow Light Snow
10:53 AM 19.4 °F 7.9 °F 15.8 °F 86% 29.77 in 2.0 mi WSW 10.4 mph - N/A Snow Light Snow
11:13 AM 19.4 °F 7.9 °F 15.8 °F 86% 29.76 in 1.5 mi West 10.4 mph 16.1 mph N/A Snow Light Snow
11:32 AM 19.4 °F 8.6 °F 15.8 °F 86% 29.76 in 2.0 mi West 9.2 mph 16.1 mph N/A Snow Light Snow
11:53 AM 21.2 °F 10.1 °F 15.8 °F 80% 29.77 in 2.0 mi West 10.4 mph 16.1 mph N/A Snow Light Snow
12:13 PM 21.2 °F 10.1 °F 15.8 °F 80% 29.77 in 2.0 mi WSW 10.4 mph 16.1 mph N/A Snow Light Snow
12:33 PM 21.2 °F 10.9 °F 15.8 °F 80% 29.77 in 1.8 mi West 9.2 mph 16.1 mph N/A Snow Light Snow
12:53 PM 21.2 °F 13.6 °F 17.6 °F 86% 29.78 in 1.5 mi West 5.8 mph 16.1 mph N/A Snow Light Snow
1:13 PM 21.2 °F 10.9 °F 17.6 °F 86% 29.78 in 2.0 mi West 9.2 mph - N/A Snow Light Snow
1:32 PM 21.2 °F 10.9 °F 17.6 °F 86% 29.79 in 2.0 mi West 9.2 mph - N/A Snow Light Snow
1:53 PM 21.2 °F 10.1 °F 17.6 °F 86% 29.79 in 2.5 mi West 10.4 mph 16.1 mph N/A Snow Light Snow
2:13 PM 23.0 °F 13.9 °F 17.6 °F 80% 29.80 in 2.5 mi West 8.1 mph - N/A Snow Light Snow
2:32 PM 23.0 °F 13.1 °F 19.4 °F 86% 29.81 in 1.5 mi West 9.2 mph - N/A Snow Light Snow
2:53 PM 23.0 °F 10.6 °F 17.6 °F 80% 29.82 in 3.0 mi West 13.8 mph 18.4 mph N/A Snow Light Snow
3:13 PM 23.0 °F 11.7 °F 19.4 °F 86% 29.83 in 2.5 mi West 11.5 mph - N/A Snow Light Snow
3:33 PM 23.0 °F 11.7 °F 19.4 °F 86% 29.84 in 3.0 mi West 11.5 mph 16.1 mph N/A Snow Light Snow
3:53 PM 23.0 °F 11.7 °F 19.4 °F 86% 29.85 in 4.0 mi West 11.5 mph 17.3 mph N/A Snow Light Snow
4:12 PM 23.0 °F 11.1 °F 19.4 °F 86% 29.86 in 3.0 mi West 12.7 mph 20.7 mph N/A Snow Light Snow
4:33 PM 23.0 °F 10.6 °F 19.4 °F 86% 29.87 in 5.0 mi West 13.8 mph 18.4 mph N/A Snow Light Snow
4:53 PM 23.0 °F 12.4 °F 19.4 °F 86% 29.88 in 10.0 mi West 10.4 mph 17.3 mph N/A Snow Light Snow
5:12 PM 23.0 °F 12.4 °F 19.4 °F 86% 29.89 in 7.0 mi West 10.4 mph - N/A Snow Light Snow
5:33 PM 23.0 °F 10.6 °F 19.4 °F 86% 29.91 in 7.0 mi West 13.8 mph 19.6 mph N/A Snow Light Snow
5:53 PM 24.8 °F 13.4 °F 19.4 °F 80% 29.92 in 7.0 mi West 12.7 mph 21.9 mph N/A Snow Light Snow
6:12 PM 24.8 °F 14.6 °F 19.4 °F 80% 29.93 in 7.0 mi West 10.4 mph 19.6 mph N/A Snow Light Snow
6:33 PM 24.8 °F 14.0 °F 19.4 °F 80% 29.94 in 7.0 mi West 11.5 mph 18.4 mph N/A Snow Light Snow
6:53 PM 24.8 °F 13.4 °F 19.4 °F 80% 29.95 in 5.0 mi West 12.7 mph 18.4 mph N/A Snow Light Snow
7:13 PM 24.8 °F 14.6 °F 19.4 °F 80% 29.95 in 5.0 mi West 10.4 mph 17.3 mph N/A Snow Light Snow
7:32 PM 23.0 °F 11.1 °F 21.2 °F 93% 29.96 in 7.0 mi West 12.7 mph 24.2 mph N/A Snow Light Snow
7:53 PM 23.0 °F 13.9 °F 21.2 °F 93% 29.98 in 10.0 mi West 8.1 mph 17.3 mph N/A   Overcast
8:13 PM 23.0 °F 13.1 °F 21.2 °F 93% 29.99 in 7.0 mi West 9.2 mph 20.7 mph N/A   Overcast
8:32 PM 23.0 °F 11.7 °F 21.2 °F 93% 30.00 in 5.0 mi West 11.5 mph 17.3 mph N/A   Overcast
8:53 PM 23.0 °F 11.1 °F 21.2 °F 93% 30.02 in 5.0 mi West 12.7 mph 17.3 mph N/A   Overcast
9:13 PM 23.0 °F 12.4 °F 21.2 °F 93% 30.02 in 10.0 mi WNW 10.4 mph 19.6 mph N/A   Overcast
9:32 PM 23.0 °F 12.4 °F 21.2 °F 93% 30.03 in 10.0 mi West 10.4 mph 16.1 mph N/A   Overcast
9:53 PM 23.0 °F 13.1 °F 21.2 °F 93% 30.04 in 5.0 mi West 9.2 mph 17.3 mph N/A   Overcast
10:13 PM 21.2 °F 8.3 °F 19.4 °F 93% 30.05 in 10.0 mi West 13.8 mph 17.3 mph N/A   Overcast
10:32 PM 21.2 °F 10.1 °F 19.4 °F 93% 30.06 in 10.0 mi West 10.4 mph 16.1 mph N/A   Overcast
10:53 PM 21.2 °F 8.9 °F 19.4 °F 93% 30.07 in 7.0 mi West 12.7 mph 17.3 mph N/A   Overcast
11:13 PM 21.2 °F 10.1 °F 19.4 °F 93% 30.08 in 10.0 mi West 10.4 mph 16.1 mph N/A   Overcast
11:32 PM 21.2 °F 10.1 °F 17.6 °F 86% 30.09 in 10.0 mi West 10.4 mph 18.4 mph N/A   Overcast
11:53 PM 21.2 °F 12.6 °F 17.6 °F 86% 30.10 in 10.0 mi West 6.9 mph 18.4 mph N/A   Overcast